Location: Unspecified
(51.5147°N, 7.4673°E)
Time: 23:27:09
(UTC+02:00)

N. Korean satellite - Visible Passes

Search period start: 26 March 2023 00:00
Search period end: 05 April 2023 01:00
Orbit: 392 x 417 km, 97.3° (Epoch: 26 March)

Date Brightness Start Highest point End Pass type
(mag) Time Alt. Az. Time Alt. Az. Time Alt. Az.
27 Mar 9.3 06:17:53 10° NE 06:20:11 18° E 06:22:26 10° SE visible
29 Mar 9.4 06:11:58 10° NE 06:13:58 16° E 06:15:55 10° SE visible
31 Mar 9.6 06:05:39 10° ENE 06:07:13 13° E 06:08:45 10° ESE visible
02 Apr 9.9 05:59:11 10° ENE 05:59:57 11° E 06:00:42 10° ESE visible
